Weather History for KLAF - November, 2011

Change the Weather History Date:

Sunday, November 27, 2011

  Actual Average Record
Temperature  
Mean Temperature 49 °F 38 °F  
Max Temperature 58 °F 45 °F 63 °F (1998)
Min Temperature 40 °F 30 °F 10 °F (1996)
Degree Days  
Heating Degree Days 16 28  
Month to date heating degree days 419 582  
Since 1 July heating degree days 833 1016  
Cooling Degree Days 0 0  
Month to date cooling degree days 0 0  
Year to date cooling degree days 1246 982  
Moisture  
Dew Point 40 °F    
Average Humidity 95    
Maximum Humidity 100    
Minimum Humidity 89    
Precipitation  
Precipitation 0.58 in 0.10 in 2.68 in (1966)
Month to date precipitation 3.66 2.67  
Year to date precipitation 39.32 33.77  
Sea Level Pressure  
Sea Level Pressure 29.94 in    
Wind  
Wind Speed 9 mph (NW)    
Max Wind Speed 16 mph    
Max Gust Speed 22 mph    
Visibility 9 miles    
Events Rain    
T = Trace of Precipitation, MM = Missing Value Source: NWS Daily Summary

Daily Weather History Graph

Daily Weather History Graph

Search for Another Location

Airport or City:

Trip Planner

Search our weather history database for the weather conditions in past years. The results will help you decide how hot, cold, wet, or windy it might be!

Date:

Astronomy

Nov. 27, 2011 Rise Set
Actual Time 7:47 AM EST 5:23 PM EST
Civil Twilight 7:17 AM EST 5:53 PM EST
Nautical Twilight 6:43 AM EST 6:26 PM EST
Astronomical Twilight 6:10 AM EST 6:59 PM EST
Moon 10:11 AM EST (11/27) 8:01 PM EST (11/27)
Length of Visible Light 10h 36m
Length of Day
9h 36m
Waxing Crescent, 8% of the Moon is Illuminated
Nov 27
Waxing Crescent
Dec 2
First Quarter
Dec 10
Full
Dec 17
Last Quarter
Dec 24
New

Hourly Weather History & Observations

Time (EST) Temp. Windchill Dew Point Humidity Pressure Visibility Wind Dir Wind Speed Gust Speed Precip Events Conditions
12:23 AM 57.2 °F - - N/A% 29.79 in 10.0 mi SSW 9.2 mph - 0.00 in   Overcast
12:54 AM 57.9 °F - - N/A% 29.78 in 10.0 mi SSW 11.5 mph 18.4 mph 0.00 in Rain Light Rain
1:54 AM 50.0 °F - - N/A% 29.79 in 9.0 mi WNW 12.7 mph - 0.05 in Rain Light Rain
3:54 AM 45.0 °F 39.3 °F - N/A% 29.83 in 10.0 mi WNW 11.5 mph - 0.02 in Rain Light Rain
4:54 AM 44.1 °F 39.0 °F - N/A% 29.82 in 10.0 mi WNW 9.2 mph - 0.07 in Rain Light Rain
5:54 AM 44.1 °F 40.8 °F - N/A% 29.82 in 10.0 mi WNW 5.8 mph - 0.05 in Rain Light Rain
6:13 AM 44.6 °F 40.2 °F - N/A% 29.83 in 10.0 mi WNW 8.1 mph - 0.01 in Rain Light Rain
6:54 AM 44.1 °F 39.0 °F 41.0 °F 89% 29.84 in 10.0 mi WNW 9.2 mph - 0.02 in Rain Light Rain
7:54 AM 44.1 °F 40.8 °F 41.0 °F 89% 29.86 in 7.0 mi WNW 5.8 mph - 0.07 in Rain Light Rain
8:10 AM 44.6 °F 43.1 °F 41.0 °F 87% 29.85 in 10.0 mi WNW 3.5 mph - 0.01 in Rain Light Rain
8:54 AM 44.1 °F 40.8 °F 41.0 °F 89% 29.88 in 9.0 mi West 5.8 mph - 0.03 in Rain Light Rain
10:54 AM 44.1 °F 38.6 °F 41.0 °F 89% 29.91 in 5.0 mi NW 10.4 mph - 0.03 in Rain Light Rain
11:11 AM 44.6 °F 39.7 °F 41.0 °F 87% 29.91 in 5.0 mi NW 9.2 mph - 0.01 in Rain Light Rain
11:33 AM 44.6 °F 38.4 °F 41.0 °F 87% 29.91 in 5.0 mi NW 12.7 mph - 0.02 in Rain Light Rain
11:54 AM 44.1 °F 38.6 °F 41.0 °F 89% 29.91 in 7.0 mi NW 10.4 mph - 0.04 in Rain Light Rain
12:54 PM 44.1 °F 37.7 °F 41.0 °F 89% 29.91 in 10.0 mi NW 12.7 mph - 0.03 in Rain Light Rain
1:54 PM 43.0 °F 36.4 °F 39.2 °F 86% 29.92 in 10.0 mi NW 12.7 mph - 0.03 in Rain Light Rain
2:54 PM 43.0 °F 37.7 °F 39.2 °F 86% 29.94 in 10.0 mi NW 9.2 mph - 0.03 in Rain Light Rain
3:33 PM 42.8 °F 37.0 °F 39.2 °F 87% 29.94 in 9.0 mi NNW 10.4 mph - 0.03 in Rain Light Rain
3:48 PM 42.8 °F 36.6 °F 39.2 °F 87% 29.95 in 10.0 mi NNW 11.5 mph - 0.04 in Rain Light Rain
3:54 PM 43.0 °F 36.8 °F 39.2 °F 86% 29.96 in 10.0 mi NNW 11.5 mph - 0.04 in Rain Light Rain
4:54 PM 42.1 °F 36.1 °F 39.2 °F 90% 29.99 in 10.0 mi NNW 10.4 mph - 0.01 in Rain Light Rain
5:54 PM 41.0 °F 34.3 °F 37.4 °F 87% 30.00 in 10.0 mi North 11.5 mph - 0.00 in   Overcast
6:13 PM 39.2 °F 33.6 °F 37.4 °F 93% 30.02 in 10.0 mi NNW 8.1 mph - N/A   Overcast
6:46 PM 39.2 °F 32.0 °F 37.4 °F 93% 30.02 in 5.0 mi NNW 11.5 mph - N/A   Overcast
6:54 PM 39.9 °F 33.4 °F 37.4 °F 91% 30.03 in 6.0 mi North 10.4 mph - N/A   Overcast
7:54 PM 39.9 °F 33.9 °F 37.4 °F 91% 30.06 in 10.0 mi NNW 9.2 mph - N/A   Overcast
8:06 PM 39.2 °F 34.2 °F 39.2 °F 100% 30.06 in 10.0 mi NW 6.9 mph - N/A   Overcast
8:54 PM 39.9 °F 35.8 °F 39.9 °F 100% 30.06 in 10.0 mi North 5.8 mph - N/A   Overcast
9:05 PM 39.2 °F 33.0 °F 39.2 °F 100% 30.05 in 10.0 mi North 9.2 mph - N/A   Overcast
9:16 PM 39.2 °F 32.5 °F 39.2 °F 100% 30.05 in 10.0 mi North 10.4 mph 18.4 mph N/A   Overcast
9:23 PM 39.2 °F 32.5 °F 39.2 °F 100% 30.05 in 10.0 mi North 10.4 mph - N/A   Overcast
9:54 PM 39.9 °F 34.5 °F 39.9 °F 100% 30.06 in 10.0 mi North 8.1 mph - N/A   Overcast
10:46 PM 39.2 °F 34.2 °F 39.2 °F 100% 30.06 in 10.0 mi North 6.9 mph - N/A   Overcast
10:54 PM 39.9 °F 34.5 °F 39.0 °F 97% 30.07 in 10.0 mi North 8.1 mph - N/A   Overcast
11:54 PM 39.9 °F 34.5 °F 39.9 °F 100% 30.07 in 10.0 mi North 8.1 mph - N/A   Overcast